Regional Weather Roundup
Issued by NWS Northern Indiana

Home | Current Version | Previous Version | Text Only | Print | Product List | Glossary On
Versions: 1 2 3 4 5 6 7 8 9 10 11 12 13 14 15 16 17 18 19 20 21 22 23 24 25 26 27 28 29 30 31 32 33 34 35 36 37 38 39 40 41 42 43 44 45 46 47 48 49 50
617
ASUS43 KIWX 291100
RWRIWX

KIWX WEATHER ROUNDUP
NATIONAL WEATHER SERVICE NORTHERN INDIANA
700 AM EDT THU SEP 29 2016

NOTE: "FAIR" INDICATES FEW OR NO CLOUDS BELOW 12,000 FEET WITH NO
SIGNIFICANT WEATHER AND/OR OBSTRUCTIONS TO VISIBILITY.

* THESE STATIONS ARE NOT UNDER NWS QUALITY CONTROL. THEY ALSO MAY NOT
  REPORT WEATHER SUCH AS PRECIPITATION OR FOG.

INZ001>027-291200-
NORTHERN INDIANA

CITY           SKY/WX    TMP DP  RH WIND       PRES   REMARKS
GARY*          LGT RAIN  63  59  88 NE17G30   30.08R
SOUTH BEND     CLOUDY    56  55  97 N8        30.07R
ELKHART*       CLOUDY   N/A N/A N/A MISG      30.05
GOSHEN         CLOUDY    57  54  89 N10       30.05R
ANGOLA*          N/A     55  45  67 VRB3      30.04R
FORT WAYNE     CLOUDY    56  53  90 NE8       30.03R

$$
INZ028>050-291200-
CENTRAL INDIANA

CITY           SKY/WX    TMP DP  RH WIND       PRES   REMARKS
KOKOMO*        CLOUDY    55  54  94 N6        30.03R
MUNCIE*        CLOUDY    55  53  93 N3        30.01R FOG
INDIANAPOLIS   CLOUDY    56  52  86 N7        30.00R

$$
MIZ043>046-050>051-056>058-064>065-071>073-077>080-291200-
SOUTHWEST LOWER MICHIGAN

CITY           SKY/WX    TMP DP  RH WIND       PRES   REMARKS
BATTLE CREEK   RAIN      58  57  97 NE10      30.07R FOG
BENTON HARBOR  LGT RAIN  58  54  86 E5        30.08R
COLDWATER*     CLOUDY    57  57  99 NE6       30.04R
HILLSDALE*     CLOUDY    57  55  94 NE5       30.03S
HOLLAND        MOCLDY    60  53  77 N9G16     30.11S
GRAND RAPIDS   CLOUDY    59  53  80 NE17      30.10S
KALAMAZOO      LGT RAIN  58  55  90 NE7       30.07R FOG
STURGIS*       CLOUDY    57  55  93 NE7       30.04R
THREE RIVERS*  CLOUDY    58  57  97 N3        30.06R

$$
OHZ001>008-015>018-024>025-291200-
NORTHWEST OHIO

CITY           SKY/WX    TMP DP  RH WIND       PRES   REMARKS
DEFIANCE       MOCLDY    57  54  89 N5        30.03R FOG
FINDLAY        CLOUDY    56  52  86 E6        30.02R
TOLEDO EXPRESS CLOUDY    57  57 100 CALM      30.02R FOG
TOLEDO METCALF MOCLDY    57  57 100 S5        30.03R FOG
LIMA           CLOUDY    55  54  96 E6        30.02R

$$
AND FOR LAKE MICHIGAN COASTAL AND OPEN LAKE BUOY OBSERVATIONS

STATION/POSITION TEMP    WIND        PRES    VSBY  WAVE
                 AIR SEA DIR/SP/G                  HT/PER
                 (F)     (DEG/KT/KT) (MB)    (MI)  (FT/S)
CALUMET HARBOR    61      20/ 16/ 23 1018.4R
MICHIGAN CITY     60      30/ 20/ 21   N/A
BURNS HARBOR      62      60/ 24/ 27 1018.3R
SAINT JOSEPH      58      40/  5/ 12 1019.3R
SOUTH LAKE BUOY   65 69   50/ 23/ 29 1018.6          7/ 7
4 MI NW BRIDGMAN  60 64   30/ 16/ 21 1018.4R         6/ 6
MICHIGAN CITY     62 65   50/ 17/ 25   N/A           7/ 7

$$
&&




USA.gov is the U.S. government's official web portal to all federal, state and local government web resources and services.